Location: Auckland
(36.8670°S, 174.7670°E)
Time: 16:21:50
(UTC+13:00)

Cosmos 2263 Rocket - Pass Details

Date: 24 January 2019
Orbit: 823 x 849 km, 71.0° (Epoch: 16 February)

Event Time Altitude Azimuth Distance (km) Brightness Sun altitude
Rises 21:37:16 0° 195° (SSW) 3,410 6.2 -11.1°
Reaches altitude 10° 21:39:51 10° 188° (S) 2,473 5.3 -11.5°
Maximum altitude 21:45:14 42° 117° (ESE) 1,190 2.8 -12.4°
Enters shadow 21:49:04 18° 54° (NE) 1,954 3.4 -13.0°
